Weather History for Houston Hull, TX

Change the Weather History Date:

Monday, March 3, 2014

  Actual Average Record
Temperature  
Mean Temperature 36 °F -  
Max Temperature 43 °F 69 °F 83 °F (1955)
Min Temperature 28 °F 49 °F 21 °F (1980)
Degree Days  
Heating Degree Days 30    
Moisture  
Dew Point 25 °F    
Average Humidity 69    
Maximum Humidity 85    
Minimum Humidity 56    
Precipitation  
Precipitation 0.00 in - - ()
Sea Level Pressure  
Sea Level Pressure 30.27 in    
Wind  
Wind Speed 16 mph (North)    
Max Wind Speed 21 mph    
Max Gust Speed 33 mph    
Visibility 10 miles    
Events Thunderstorm    
Averages and records for this station are not official NWS values.
T = Trace of Precipitation, MM = Missing Value Source: NWS Daily Summary

Daily Weather History Graph

Daily Weather History Graph

Search for Another Location

Airport:

Trip Planner

Search our weather history database for the weather conditions in past years. The results will help you decide how hot, cold, wet, or windy it might be!

Date:

Astronomy

Mar. 03, 2014 Rise Set
Actual Time 6:46 AM CST 6:23 PM CST
Civil Twilight 6:22 AM CST 6:47 PM CST
Nautical Twilight 5:54 AM CST 7:14 PM CST
Astronomical Twilight 5:26 AM CST 7:42 PM CST
Moon 8:09 AM CST (3/3) 9:10 PM CST (3/3)
Length of Visible Light 12h 25m
Length of Day
11h 37m
Waxing Crescent, 8% of the Moon is Illuminated
Mar 3
Waxing Crescent
Mar 8
First Quarter
Mar 16
Full
Mar 23
Last Quarter
Mar 30
New

Hourly Weather History & Observations

Time (CST) Temp. Windchill Dew Point Humidity Pressure Visibility Wind Dir Wind Speed Gust Speed Precip Events Conditions
12:53 AM 32.0 °F 20.1 °F 28.0 °F 85% 30.17 in 10.0 mi North 19.6 mph 26.5 mph N/A   Overcast
1:53 AM 30.9 °F 20.2 °F 26.1 °F 82% 30.18 in 10.0 mi North 15.0 mph 28.8 mph N/A   Overcast
2:53 AM 30.0 °F 17.5 °F 24.1 °F 79% 30.19 in 10.0 mi North 19.6 mph 31.1 mph N/A   Overcast
3:53 AM 28.9 °F 15.8 °F 23.0 °F 78% 30.21 in 10.0 mi North 20.7 mph 29.9 mph N/A   Overcast
4:53 AM 28.0 °F 15.7 °F 23.0 °F 81% 30.23 in 10.0 mi NNW 17.3 mph 25.3 mph N/A   Overcast
5:53 AM 28.0 °F 14.9 °F 21.9 °F 78% 30.25 in 10.0 mi North 19.6 mph 33.4 mph N/A   Overcast
6:53 AM 28.0 °F 17.5 °F 21.9 °F 78% 30.29 in 10.0 mi North 12.7 mph - N/A   Overcast
7:53 AM 28.0 °F 16.5 °F 21.9 °F 78% 30.30 in 10.0 mi North 15.0 mph 25.3 mph N/A   Overcast
8:29 AM 28.9 °F 15.8 °F 21.9 °F 75% 30.30 in 10.0 mi North 20.7 mph 27.6 mph N/A   Overcast
8:53 AM 28.9 °F 16.9 °F 21.9 °F 75% 30.33 in 10.0 mi North 17.3 mph 27.6 mph N/A   Overcast
9:53 AM 32.0 °F 20.5 °F 23.0 °F 69% 30.33 in 10.0 mi North 18.4 mph 24.2 mph N/A   Overcast
10:53 AM 35.6 °F 25.9 °F - N/A% 30.32 in 10.0 mi North 16.1 mph 25.3 mph N/A   Clear
11:42 AM 39.0 °F 30.6 °F 27.0 °F 62% 30.32 in 10.0 mi North 15.0 mph 24.2 mph 0.00 in   Unknown
12:48 PM 42.8 °F 35.8 °F 28.4 °F 57% 30.29 in 10.0 mi NNE 13.8 mph - 0.00 in   Mostly Cloudy
12:53 PM 42.1 °F 37.1 °F 28.0 °F 58% 30.30 in 10.0 mi North 8.1 mph 19.6 mph 0.00 in   Mostly Cloudy
1:03 PM 43.0 °F 36.4 °F 28.0 °F 56% 30.29 in 10.0 mi North 12.7 mph 21.9 mph N/A   Scattered Clouds
1:53 PM 43.0 °F 36.4 °F 28.0 °F 56% 30.28 in 10.0 mi North 12.7 mph - N/A   Mostly Cloudy
2:00 PM 43.0 °F 36.0 °F 28.0 °F 56% 30.27 in 10.0 mi North 13.8 mph 21.9 mph N/A   Unknown
3:53 PM 41.0 °F 33.5 °F - N/A% 30.24 in 10.0 mi NNE 13.8 mph - N/A   Clear
4:40 PM 42.1 °F 34.5 °F 28.0 °F 58% 30.24 in 10.0 mi NNE 15.0 mph - N/A   Scattered Clouds
4:53 PM 41.0 °F 33.5 °F 27.0 °F 57% 30.25 in 10.0 mi NE 13.8 mph - N/A   Partly Cloudy
5:53 PM 39.0 °F 31.8 °F 26.1 °F 60% 30.25 in 10.0 mi North 11.5 mph - N/A   Clear
6:53 PM 36.0 °F 25.6 °F 25.0 °F 64% 30.26 in 10.0 mi North 18.4 mph - N/A   Clear
7:53 PM 35.1 °F 25.2 °F 25.0 °F 67% 30.27 in 10.0 mi NNE 16.1 mph - N/A   Overcast
8:53 PM 34.0 °F 24.2 °F 25.0 °F 70% 30.29 in 10.0 mi North 15.0 mph - N/A   Overcast
9:16 PM 34.0 °F 25.5 °F 25.0 °F 70% 30.29 in 10.0 mi North 11.5 mph - N/A   Overcast
9:48 PM 33.8 °F 24.8 °F 24.8 °F 70% 30.28 in 10.0 mi NNE 12.7 mph - N/A Thunderstorm Overcast
9:53 PM 34.0 °F 24.6 °F 25.0 °F 70% 30.28 in 10.0 mi NNE 13.8 mph - N/A Thunderstorm Overcast
10:25 PM 34.0 °F 26.6 °F 25.0 °F 70% 30.28 in 10.0 mi NNE 9.2 mph - N/A   Overcast
10:37 PM 34.0 °F 24.6 °F 26.1 °F 73% 30.28 in 10.0 mi North 13.8 mph - N/A   Overcast
10:53 PM 34.0 °F 24.6 °F 26.1 °F 73% 30.29 in 10.0 mi North 13.8 mph - N/A   Overcast
11:53 PM 33.1 °F 23.4 °F 27.0 °F 78% 30.27 in 10.0 mi NNE 13.8 mph - N/A   Overcast